Location: ???????
(54.6339°N, 39.4245°E)
Time: 13:39:00
(UTC+00:00)

Cosmos 1707 - Pass Details

Date: 19 May 2025
Orbit: 422 x 430 km, 82.5° (Epoch: 19 June)

Event Time Altitude Azimuth Distance (km) Brightness Sun altitude
Exits shadow 21:20:41 26° 223° (SW) 886 3.5 -15.4°
Maximum altitude 21:22:14 49° 285° (WNW) 572 3.0 -15.4°
Drops below altitude 10° 21:25:32 10° 2° (N) 1,556 6.5 -15.4°
Sets 21:27:39 0° 8° (N) 2,431 8.0 -15.4°
